| time (UTC) | temp C | wind direction | speed KPH | gust KPH | rain 1hr cm | rain 24hr cm | rain mn cm | humidity % | barometer mb |
| 20260904095517 | 27 | 211 | 8.0 | 19.3 | 0.00 | 0.00 | 0.00 | 58 | 1017.1 |
| 20260904094517 | 26 | 214 | 4.8 | 25.7 | 0.00 | 0.00 | 0.00 | 59 | 1017.3 |
| 20260904093517 | 26 | 185 | 6.4 | 17.7 | 0.00 | 0.00 | 0.00 | 61 | 1017.5 |
| 20260904092537 | 26 | 210 | 9.7 | 25.7 | 0.00 | 0.00 | 0.00 | 60 | 1017.7 |
| 20260904091516 | 26 | 202 | 4.8 | 16.1 | 0.00 | 0.00 | 0.00 | 61 | 1017.9 |
| 20260904090517 | 25 | 176 | 6.4 | 17.7 | 0.00 | 0.00 | 0.00 | 62 | 1018.0 |
| 20260904085517 | 25 | 188 | 6.4 | 17.7 | 0.00 | 0.00 | 0.00 | 63 | 1018.1 |
| 20260904084517 | 25 | 179 | 4.8 | 14.5 | 0.00 | 0.00 | 0.00 | 64 | 1018.2 |
| 20260904083517 | 24 | 157 | 4.8 | 14.5 | 0.00 | 0.00 | 0.00 | 66 | 1018.2 |
| 20260904082537 | 23 | 160 | 4.8 | 14.5 | 0.00 | 0.00 | 0.00 | 67 | 1018.2 |
| 20260904081517 | 23 | 161 | 6.4 | 16.1 | 0.00 | 0.00 | 0.00 | 69 | 1018.3 |
| 20260904080557 | 22 | 163 | 4.8 | 16.1 | 0.00 | 0.00 | 0.00 | 70 | 1018.4 |
| 20260904075517 | 22 | 165 | 4.8 | 19.3 | 0.00 | 0.00 | 0.00 | 70 | 1018.4 |
| 20260904074517 | 22 | 170 | 4.8 | 14.5 | 0.00 | 0.00 | 0.00 | 71 | 1018.4 |
| 20260904073517 | 21 | 158 | 4.8 | 16.1 | 0.00 | 0.00 | 0.00 | 72 | 1018.4 |
| 20260904072517 | 21 | 164 | 3.2 | 11.3 | 0.00 | 0.00 | 0.00 | 73 | 1018.4 |
| 20260904071517 | 21 | 185 | 3.2 | 11.3 | 0.00 | 0.00 | 0.00 | 75 | 1018.6 |
| 20260904070517 | 20 | 170 | 6.4 | 16.1 | 0.00 | 0.00 | 0.00 | 76 | 1018.7 |
| 20260904065517 | 20 | 168 | 4.8 | 9.7 | 0.00 | 0.00 | 0.00 | 78 | 1018.8 |
| 20260904064517 | 19 | 162 | 4.8 | 17.7 | 0.00 | 0.00 | 0.00 | 79 | 1018.9 |
| 20260904063517 | 18 | 169 | 4.8 | 12.9 | 0.00 | 0.00 | 0.00 | 80 | 1018.9 |
| 20260904062517 | 18 | 173 | 4.8 | 16.1 | 0.00 | 0.00 | 0.00 | 83 | 1018.9 |
| 20260904061517 | 17 | 177 | 4.8 | 12.9 | 0.00 | 0.00 | 0.00 | 84 | 1019.0 |
| 20260904060557 | 17 | 180 | 3.2 | 9.7 | 0.00 | 0.00 | 0.00 | 85 | 1019.0 |
| 20260904055517 | 17 | 184 | 3.2 | 9.7 | 0.00 | 0.00 | 0.00 | 85 | 1019.1 |
| 20260904054537 | 16 | 217 | 3.2 | 6.4 | 0.00 | 0.00 | 0.00 | 86 | 1019.0 |
| 20260904053517 | 16 | 219 | 1.6 | 6.4 | 0.00 | 0.00 | 0.00 | 85 | 1019.0 |
| 20260904052517 | 16 | 226 | 1.6 | 4.8 | 0.00 | 0.00 | 0.00 | 85 | 1019.1 |
| 20260904051517 | 16 | 195 | 1.6 | 4.8 | 0.00 | 0.00 | 0.00 | 84 | 1019.1 |
| 20260904050517 | 17 | 210 | 1.6 | 6.4 | 0.00 | 0.00 | 0.00 | 83 | 1019.1 |
| 20260904045517 | 17 | 182 | 1.6 | 6.4 | 0.00 | 0.00 | 0.00 | 83 | 1019.1 |
| 20260904044517 | 17 | 172 | 1.6 | 6.4 | 0.00 | 0.00 | 0.00 | 82 | 1019.2 |
| 20260904043537 | 17 | 174 | 1.6 | 6.4 | 0.00 | 0.00 | 0.00 | 83 | 1019.2 |
| 20260904042517 | 17 | 136 | 3.2 | 6.4 | 0.00 | 0.00 | 0.00 | 85 | 1019.2 |
| 20260904041517 | 17 | 308 | 0.0 | 3.2 | 0.00 | 0.00 | 0.00 | 85 | 1019.4 |
| 20260904040517 | 17 | 224 | 3.2 | 6.4 | 0.00 | 0.00 | 0.00 | 86 | 1019.5 |
| 20260904035557 | 16 | 222 | 1.6 | 6.4 | 0.00 | 0.00 | 0.00 | 87 | 1019.6 |
| 20260904034515 | 16 | 217 | 1.6 | 6.4 | 0.00 | 0.00 | 0.00 | 86 | 1019.6 |
| 20260904033537 | 16 | 221 | 0.0 | 1.6 | 0.00 | 0.00 | 0.00 | 86 | 1019.6 |
| 20260904032517 | 16 | 192 | 0.0 | 3.2 | 0.00 | 0.00 | 0.00 | 86 | 1019.7 |
| 20260904031517 | 16 | 236 | 0.0 | 3.2 | 0.00 | 0.00 | 0.00 | 85 | 1019.8 |
| 20260904030517 | 16 | 0.0 | 0.0 | 0.00 | 0.00 | 0.00 | 84 | 1019.9 | |
| 20260904025517 | 16 | 200 | 0.0 | 1.6 | 0.00 | 0.00 | 0.00 | 83 | 1019.9 |
| 20260904024537 | 17 | 201 | 0.0 | 3.2 | 0.00 | 0.00 | 0.00 | 83 | 1020.0 |
| 20260904023517 | 17 | 197 | 1.6 | 4.8 | 0.00 | 0.00 | 0.00 | 82 | 1020.1 |
| 20260904022517 | 17 | 225 | 0.0 | 1.6 | 0.00 | 0.00 | 0.00 | 81 | 1020.2 |
| 20260904021517 | 17 | 241 | 0.0 | 1.6 | 0.00 | 0.00 | 0.00 | 81 | 1020.3 |
| 20260904020517 | 17 | 230 | 1.6 | 4.8 | 0.00 | 0.00 | 0.00 | 79 | 1020.4 |
| 20260904015517 | 18 | 195 | 1.6 | 6.4 | 0.00 | 0.00 | 0.00 | 79 | 1020.5 |
| 20260904014537 | 18 | 206 | 1.6 | 6.4 | 0.00 | 0.00 | 0.00 | 79 | 1020.5 |
| 20260904013517 | 18 | 236 | 3.2 | 6.4 | 0.00 | 0.00 | 0.00 | 79 | 1020.5 |
| 20260904012517 | 18 | 230 | 3.2 | 8.0 | 0.00 | 0.00 | 0.00 | 79 | 1020.6 |
| 20260904011517 | 18 | 232 | 3.2 | 8.0 | 0.00 | 0.00 | 0.00 | 79 | 1020.6 |
| 20260904010515 | 17 | 236 | 4.8 | 9.7 | 0.00 | 0.00 | 0.00 | 80 | 1020.6 |
| 20260904005517 | 17 | 228 | 3.2 | 8.0 | 0.00 | 0.00 | 0.00 | 80 | 1020.5 |
| 20260904004517 | 17 | 224 | 3.2 | 8.0 | 0.00 | 0.00 | 0.00 | 81 | 1020.4 |
| 20260904003517 | 17 | 226 | 3.2 | 6.4 | 0.00 | 0.00 | 0.00 | 81 | 1020.4 |
| 20260904002517 | 17 | 232 | 3.2 | 4.8 | 0.00 | 0.00 | 0.00 | 82 | 1020.5 |
| 20260904001517 | 17 | 220 | 1.6 | 3.2 | 0.00 | 0.00 | 0.00 | 81 | 1020.7 |
| 20260904000517 | 17 | 205 | 0.0 | 1.6 | 0.00 | 0.00 | 0.00 | 80 | 1020.9 |
| 20260903235517 | 17 | 205 | 0.0 | 1.6 | 0.00 | 0.00 | 0.00 | 79 | 1020.9 |
| 20260903234517 | 17 | 205 | 0.0 | 1.6 | 0.00 | 0.00 | 0.00 | 78 | 1021.2 |
| 20260903233517 | 18 | 233 | 0.0 | 1.6 | 0.00 | 0.00 | 0.00 | 77 | 1021.3 |
| 20260903232535 | 18 | 238 | 0.0 | 3.2 | 0.00 | 0.00 | 0.00 | 76 | 1021.3 |
| 20260903231517 | 18 | 227 | 1.6 | 3.2 | 0.00 | 0.00 | 0.00 | 76 | 1021.3 |
| 20260903230557 | 18 | 204 | 1.6 | 6.4 | 0.00 | 0.00 | 0.00 | 76 | 1021.3 |
| 20260903225517 | 18 | 226 | 1.6 | 3.2 | 0.00 | 0.00 | 0.00 | 77 | 1021.3 |
| 20260903224516 | 18 | 236 | 0.0 | 3.2 | 0.00 | 0.00 | 0.00 | 75 | 1021.3 |
| 20260903223517 | 18 | 233 | 0.0 | 1.6 | 0.00 | 0.00 | 0.00 | 74 | 1021.3 |
| 20260903222517 | 18 | 222 | 0.0 | 1.6 | 0.00 | 0.00 | 0.00 | 74 | 1021.2 |
| 20260903221517 | 19 | 223 | 0.0 | 3.2 | 0.00 | 0.00 | 0.00 | 73 | 1021.3 |
| 20260903220517 | 19 | 216 | 0.0 | 3.2 | 0.00 | 0.00 | 0.00 | 73 | 1021.3 |
| 20260903215517 | 18 | 192 | 1.6 | 9.7 | 0.00 | 0.00 | 0.00 | 73 | 1021.3 |
| 20260903214517 | 18 | 144 | 0.0 | 3.2 | 0.00 | 0.00 | 0.00 | 73 | 1021.4 |
| 20260903213517 | 19 | 233 | 0.0 | 3.2 | 0.00 | 0.00 | 0.00 | 73 | 1021.4 |
| 20260903212517 | 19 | 226 | 0.0 | 3.2 | 0.00 | 0.00 | 0.00 | 72 | 1021.4 |
| 20260903211517 | 19 | 219 | 0.0 | 1.6 | 0.00 | 0.00 | 0.00 | 71 | 1021.3 |
| 20260903210516 | 19 | 174 | 0.0 | 3.2 | 0.00 | 0.00 | 0.00 | 70 | 1021.1 |
| 20260903205537 | 19 | 208 | 0.0 | 3.2 | 0.00 | 0.00 | 0.00 | 69 | 1021.2 |
| 20260903204517 | 19 | 178 | 0.0 | 4.8 | 0.00 | 0.00 | 0.00 | 69 | 1021.1 |
| 20260903203517 | 20 | 204 | 0.0 | 1.6 | 0.00 | 0.00 | 0.00 | 68 | 1021.2 |
| 20260903202517 | 20 | 236 | 0.0 | 1.6 | 0.00 | 0.00 | 0.00 | 67 | 1021.2 |
| 20260903201517 | 20 | 230 | 0.0 | 3.2 | 0.00 | 0.00 | 0.00 | 66 | 1021.2 |
| 20260903200517 | 21 | 177 | 0.0 | 3.2 | 0.00 | 0.00 | 0.00 | 65 | 1021.2 |
| 20260903195517 | 21 | 170 | 1.6 | 3.2 | 0.00 | 0.00 | 0.00 | 64 | 1021.2 |
| 20260903194517 | 21 | 223 | 1.6 | 3.2 | 0.00 | 0.00 | 0.00 | 62 | 1021.2 |
| 20260903193517 | 22 | 0.0 | 3.2 | 0.00 | 0.00 | 0.00 | 61 | 1021.2 | |
| 20260903192516 | 22 | 286 | 0.0 | 1.6 | 0.00 | 0.00 | 0.00 | 59 | 1021.1 |
| 20260903191517 | 23 | 232 | 0.0 | 3.2 | 0.00 | 0.00 | 0.00 | 57 | 1021.1 |
| 20260903190557 | 23 | 260 | 0.0 | 3.2 | 0.00 | 0.00 | 0.00 | 55 | 1021.2 |
| 20260903185517 | 23 | 268 | 1.6 | 8.0 | 0.00 | 0.00 | 0.00 | 53 | 1021.1 |
| 20260903184517 | 23 | 219 | 1.6 | 8.0 | 0.00 | 0.00 | 0.00 | 52 | 1021.1 |
| 20260903183517 | 24 | 224 | 3.2 | 12.9 | 0.00 | 0.00 | 0.00 | 51 | 1021.0 |
| 20260903182517 | 24 | 228 | 3.2 | 16.1 | 0.00 | 0.00 | 0.00 | 51 | 1020.9 |
| 20260903181517 | 24 | 219 | 3.2 | 9.7 | 0.00 | 0.00 | 0.00 | 51 | 1020.7 |
| 20260903180516 | 24 | 230 | 3.2 | 14.5 | 0.00 | 0.00 | 0.00 | 51 | 1020.7 |
| 20260903175517 | 24 | 226 | 4.8 | 12.9 | 0.00 | 0.00 | 0.00 | 51 | 1020.6 |
| 20260903174516 | 24 | 214 | 3.2 | 9.7 | 0.00 | 0.00 | 0.00 | 51 | 1020.6 |
| 20260903173517 | 24 | 225 | 4.8 | 9.7 | 0.00 | 0.00 | 0.00 | 51 | 1020.6 |
| 20260903172517 | 25 | 249 | 1.6 | 4.8 | 0.00 | 0.00 | 0.00 | 51 | 1020.7 |
| 20260903171537 | 25 | 211 | 1.6 | 8.0 | 0.00 | 0.00 | 0.00 | 50 | 1020.6 |
| 20260903170537 | 25 | 229 | 1.6 | 8.0 | 0.00 | 0.00 | 0.00 | 49 | 1020.6 |
| 20260903165517 | 25 | 218 | 1.6 | 6.4 | 0.00 | 0.00 | 0.00 | 50 | 1020.4 |
| 20260903164537 | 25 | 224 | 3.2 | 8.0 | 0.00 | 0.00 | 0.00 | 48 | 1020.4 |
| 20260903163517 | 25 | 229 | 3.2 | 9.7 | 0.00 | 0.00 | 0.00 | 48 | 1020.4 |
| 20260903162517 | 25 | 218 | 3.2 | 14.5 | 0.00 | 0.00 | 0.00 | 48 | 1020.3 |
| 20260903161537 | 25 | 221 | 3.2 | 11.3 | 0.00 | 0.00 | 0.00 | 48 | 1020.3 |
| 20260903160517 | 26 | 212 | 6.4 | 14.5 | 0.00 | 0.00 | 0.00 | 47 | 1020.4 |
| 20260903155557 | 26 | 219 | 6.4 | 14.5 | 0.00 | 0.00 | 0.00 | 47 | 1020.3 |
| 20260903154537 | 26 | 227 | 4.8 | 16.1 | 0.00 | 0.00 | 0.00 | 47 | 1020.3 |
| 20260903153517 | 26 | 223 | 4.8 | 14.5 | 0.00 | 0.00 | 0.00 | 47 | 1020.5 |
| 20260903152517 | 26 | 222 | 4.8 | 17.7 | 0.00 | 0.00 | 0.00 | 47 | 1020.6 |
| 20260903151517 | 26 | 219 | 8.0 | 19.3 | 0.00 | 0.00 | 0.00 | 46 | 1020.7 |
| 20260903150517 | 26 | 219 | 6.4 | 22.5 | 0.00 | 0.00 | 0.00 | 46 | 1020.7 |
| 20260903145517 | 26 | 221 | 4.8 | 16.1 | 0.00 | 0.00 | 0.00 | 47 | 1020.7 |
| 20260903144516 | 26 | 193 | 6.4 | 16.1 | 0.00 | 0.00 | 0.00 | 47 | 1020.7 |
| 20260903143537 | 26 | 225 | 8.0 | 19.3 | 0.00 | 0.00 | 0.00 | 46 | 1020.8 |
| 20260903142517 | 26 | 208 | 6.4 | 22.5 | 0.00 | 0.00 | 0.00 | 47 | 1020.8 |
| 20260903141557 | 26 | 216 | 6.4 | 19.3 | 0.00 | 0.00 | 0.00 | 46 | 1021.0 |
| 20260903140517 | 26 | 222 | 6.4 | 24.1 | 0.00 | 0.00 | 0.00 | 47 | 1021.0 |
| 20260903135537 | 26 | 220 | 4.8 | 17.7 | 0.00 | 0.00 | 0.00 | 47 | 1020.9 |
| 20260903134517 | 26 | 231 | 6.4 | 17.7 | 0.00 | 0.00 | 0.00 | 46 | 1021.0 |
| 20260903133517 | 26 | 224 | 6.4 | 24.1 | 0.00 | 0.00 | 0.00 | 46 | 1021.0 |
| 20260903132517 | 26 | 217 | 6.4 | 25.7 | 0.00 | 0.00 | 0.00 | 46 | 1021.0 |
| 20260903131517 | 26 | 224 | 8.0 | 17.7 | 0.00 | 0.00 | 0.00 | 45 | 1021.1 |
| 20260903130517 | 26 | 211 | 6.4 | 14.5 | 0.00 | 0.00 | 0.00 | 47 | 1021.1 |
| 20260903125517 | 26 | 201 | 9.7 | 19.3 | 0.00 | 0.00 | 0.00 | 46 | 1021.2 |
| 20260903124517 | 26 | 226 | 9.7 | 25.7 | 0.00 | 0.00 | 0.00 | 46 | 1021.3 |
| 20260903123537 | 26 | 213 | 8.0 | 22.5 | 0.00 | 0.00 | 0.00 | 47 | 1021.2 |
| 20260903122517 | 25 | 210 | 8.0 | 24.1 | 0.00 | 0.00 | 0.00 | 48 | 1021.3 |
| 20260903121517 | 25 | 224 | 9.7 | 25.7 | 0.00 | 0.00 | 0.00 | 46 | 1021.7 |
| 20260903120517 | 25 | 223 | 6.4 | 16.1 | 0.00 | 0.00 | 0.00 | 47 | 1021.6 |
| 20260903115537 | 25 | 223 | 9.7 | 19.3 | 0.00 | 0.00 | 0.00 | 46 | 1021.5 |
| 20260903114517 | 25 | 223 | 4.8 | 20.9 | 0.00 | 0.00 | 0.00 | 47 | 1021.4 |
| 20260903113517 | 25 | 234 | 4.8 | 16.1 | 0.00 | 0.00 | 0.00 | 48 | 1021.4 |
| 20260903112517 | 25 | 222 | 4.8 | 14.5 | 0.00 | 0.00 | 0.00 | 47 | 1021.3 |
| 20260903111517 | 25 | 219 | 6.4 | 20.9 | 0.00 | 0.00 | 0.00 | 47 | 1021.4 |
| 20260903110517 | 25 | 217 | 9.7 | 20.9 | 0.00 | 0.00 | 0.00 | 46 | 1021.4 |
| 20260903105517 | 25 | 217 | 8.0 | 25.7 | 0.00 | 0.00 | 0.00 | 46 | 1021.5 |
| 20260903104517 | 25 | 218 | 9.7 | 20.9 | 0.00 | 0.00 | 0.00 | 46 | 1021.7 |
| 20260903103517 | 25 | 227 | 8.0 | 22.5 | 0.00 | 0.00 | 0.00 | 46 | 1021.8 |
| 20260903102557 | 25 | 221 | 8.0 | 17.7 | 0.00 | 0.00 | 0.00 | 46 | 1021.9 |
| 20260903101537 | 24 | 221 | 6.4 | 19.3 | 0.00 | 0.00 | 0.00 | 48 | 1022.1 |
| 20260903100516 | 24 | 217 | 6.4 | 22.5 | 0.00 | 0.00 | 0.00 | 49 | 1022.3 |